Location: Nebula Knoll Observatory
(43.6666°N, 71.0000°W)
Time: 13:47:47
(UTC-04:00)

Cosmos 1782 - Visible Passes

Search period start: 23 April 2017 00:00
Search period end: 03 May 2017 00:00
Orbit: 539 x 554 km, 82.5° (Epoch: 21 April)

Date Brightness Start Highest point End Pass type
(mag) Time Alt. Az. Time Alt. Az. Time Alt. Az.
23 Apr 4.3 22:59:16 35° NNW 22:59:16 35° NNW 23:01:53 10° N visible
24 Apr 5.1 21:17:57 11° ENE 21:17:57 11° ENE 21:18:33 10° ENE visible
24 Apr 4.1 22:53:34 40° NW 22:53:34 40° NW 22:56:33 10° N visible
25 Apr 4.9 21:12:13 13° ENE 21:12:13 13° ENE 21:13:25 10° NE visible
25 Apr 3.9 22:47:50 43° NW 22:47:50 43° NW 22:51:12 10° N visible
26 Apr 4.7 21:06:27 14° ENE 21:06:27 14° ENE 21:08:15 10° NE visible
26 Apr 3.8 22:42:04 43° WNW 22:42:04 43° WNW 22:45:51 10° N visible
27 Apr 4.6 21:00:38 15° E 21:00:41 15° E 21:03:04 10° NE visible
27 Apr 3.9 22:36:14 39° W 22:36:41 40° WNW 22:40:30 10° N visible
28 Apr 4.5 20:54:45 16° E 20:55:20 16° E 20:57:52 10° NE visible
28 Apr 4.1 22:30:21 32° WSW 22:31:22 38° WNW 22:35:08 10° N visible
29 Apr 4.4 20:48:49 15° ESE 20:49:59 17° E 20:52:39 10° NE visible
29 Apr 4.2 22:24:25 25° WSW 22:26:03 35° WNW 22:29:46 10° N visible
30 Apr 4.4 20:42:48 14° ESE 20:44:38 18° E 20:47:25 10° NE visible
30 Apr 4.4 22:18:24 18° SW 22:20:44 33° WNW 22:24:24 10° N visible
01 May 4.3 20:36:43 11° SE 20:39:17 19° E 20:42:11 10° NE visible
01 May 4.5 22:12:17 13° SW 22:15:24 31° WNW 22:19:01 10° NNW visible
02 May 4.2 20:30:55 10° SE 20:33:55 21° E 20:36:55 10° NE visible
02 May 4.6 22:06:34 10° SW 22:10:05 29° WNW 22:13:38 10° NNW visible
